Hourly Data Report for December 06, 2020

FORT GOOD HOPE CS
NORTHWEST TERRITORIES
Current Station Operator: ECCC - MSC

66°14'32.044" N
128°38'39.081" W
81.70 m
2201450
71491
ZGH

Download Data

Hourly Data (December 2020)
Hourly Data Report for December 6, 2020
TIME
LST
Temp Definition
°C
Dew Point Definition
°C
Rel Hum Definition
%
Precip. Amount Definition
mm

Wind Dir Definition
10's deg

Wind Spd Definition
km/h
Visibility Definition
km
Stn Press Definition
kPa
Hmdx Definition


Wind Chill Definition


Weather Definition


00:00 -20.7 -23.0 82 0.0 2 1   100.00   -22 LegendNANA
01:00 -22.0 -24.6 80 0.0 33 2   99.94   -24 LegendNANA
02:00 -20.9 -23.3 81 0.0   0   99.93     LegendNANA
03:00 -20.3 -22.8 81 0.0 3 2   99.95   -22 LegendNANA
04:00 -19.8 -22.2 81 0.0   0   99.96     LegendNANA
05:00 -19.1 -21.4 82 0.0 29 2   99.96   -21 LegendNANA
06:00 -18.1 -20.3 83 0.0 32 1   99.99   -19 LegendNANA
07:00 -17.9 -20.1 83 0.2 29 2   100.00   -19 LegendNANA
08:00 -17.7 -19.9 83 0.0 25 1   99.99   -18 LegendNANA
09:00 -17.5 -19.6 83 0.0 0 1   99.96   -18 LegendNANA
10:00 -17.2 -19.4 83 0.0   0   99.94     LegendNANA
11:00 -17.8 -20.0 83 0.0 25 4   99.96   -21 LegendNANA
12:00 -18.4 -20.8 82 0.0 25 1   99.90   -19 LegendNANA
13:00 -20.8 -23.3 81 0.0 24 2   99.90   -23 LegendNANA
14:00 -19.1 -21.3 83 0.0 34 3   99.80   -22 LegendNANA
15:00 -20.9 -23.3 81 0.0 6 1   99.71   -22 LegendNANA
16:00 -18.4 -20.6 83 0.0 8 2   99.59   -20 LegendNANA
17:00 -18.0 -20.2 83 0.0 1 2   99.51   -20 LegendNANA
18:00 -17.7 -19.8 83 0.0 2 2   99.36   -19 LegendNANA
19:00 -16.9 -18.9 84 0.0 0 1   99.25   -18 LegendNANA
20:00 -16.2 -18.3 84 0.0 0 1   99.10   -17 LegendNANA
21:00 -13.9 -15.6 87 0.4 5 3   98.98   -16 LegendNANA
22:00 -13.0 -14.8 87 0.5 6 6   98.93   -17 LegendNANA
23:00 -12.8 -14.5 87 0.5 5 5   98.80   -16 LegendNANA

Notes on Data Quality.

Legend

  • E = Estimated
  • M = Missing
  • NA = Not Available*
  • [empty] = Indicates an unobserved value
Date modified: